カタログに戻る

GHGSAT-C4

運用中科学SSO
NORAD 52746·PAYLOAD·🇨🇦 Canada

打ち上げ May 25, 2022 から Cape Canaveral Space Force Station

Loading…

次のパス (今後24時間)

TLE

最新Source: Space-Track

元期: Sep 14, 2026, 20:06 UTC

1 52746U 22057Q   26257.83803856  .00005892  00000-0  17423-3 0  9997
2 52746  97.6654  45.7314 0006945 137.2378 222.9406 15.35315600239291

AllMySatでGHGSAT-C4をリアルタイム追跡

Download on the App Store